Regional Weather Roundup
Issued by NWS

Home | Current Version | Previous Version | Graphics & Text | Print | Product List | Glossary On
Versions: 1 2 3 4 5 6 7 8 9 10 11 12 13 14 15 16 17 18 19 20 21 22 23 24 25 26 27 28 29 30 31 32 33 34 35 36 37 38 39 40 41 42 43 44 45 46 47 48 49 50
000
ASUS43 KBIS 230810
RWRND

NORTH DAKOTA REGIONAL WEATHER ROUNDUP
NATIONAL WEATHER SERVICE BISMARCK ND
200 AM CST SUN NOV 23 2014

NOTE: "FAIR" INDICATES FEW OR NO CLOUDS BELOW 12,000 FEET WITH NO
SIGNIFICANT WEATHER AND/OR OBSTRUCTIONS TO VISIBILITY.


NDZ001>003-009>011-017-230900-
NORTHWEST NORTH DAKOTA

CITY           SKY/WX    TMP DP  RH WIND       PRES   REMARKS
WILLISTON      CLOUDY    38  31  76 W20G26    29.34R
MINOT          MOCLDY    39  28  64 SW14G22   29.29R
MINOT AFB      MOCLDY    37  30  76 W15       29.28R
$$

NDZ018>021-031>035-040>046-230900-
SOUTHWEST NORTH DAKOTA

CITY           SKY/WX    TMP DP  RH WIND       PRES   REMARKS
BISMARCK       LGT RAIN  37  35  92 SW6       29.41R
DICKINSON      CLOUDY    36  29  75 W22G28    29.39S
GARRISON         N/A     36  30  79 W12       29.34R
HETTINGER ARPT CLOUDY    37  27  67 W20       29.47R
$$

NDZ004>008-012>016-024-026-027-054-230900-
NORTHEAST NORTH DAKOTA

CITY           SKY/WX    TMP DP  RH WIND       PRES   REMARKS
GRAND FORKS    CLOUDY    34  31  88 S16       29.36R
GRND FRKS AFB  CLOUDY    33  33  99 SW14      29.35R
DEVILS LAKE    PTCLDY    32  25  74 CALM      29.29R
$$

NDZ022-023-025-028>030-036>039-047>053-230900-
SOUTHEAST NORTH DAKOTA

CITY           SKY/WX    TMP DP  RH WIND       PRES   REMARKS
FARGO          CLOUDY    35  32  88 S12       29.39R FOG
JAMESTOWN      MOCLDY    34  31  88 W5        29.36R
$$




USA.gov is the U.S. government's official web portal to all federal, state and local government web resources and services.